User: anonymous   Login
Location: Castillon
(43.0896°N, 0.2156°E)
Time: 18:35:49
(UTC+00:00)
Language:

Cosmos 1544 Rocket - Orbit

View from above orbital plane
View from above orbital plane
View from above satellite
View from above satellite

Ground track
Ground track

The orbit data is extracted from the following two-line orbital elements,

1 14820U 84027B   21264.47009436  .00000106  00000-0  99504-5 0  9993
2 14820  82.5445 330.5135 0017770 325.9369  34.0704 14.83716711 26863
Epoch (UTC): 21 September 2021 11:16:56
Eccentricity: 0.0017770
inclination: 82.5445°
perigee height: 605 km
apogee height: 630 km
right ascension of ascending node: 330.5135°
argument of perigee: 325.9369°
revolutions per day: 14.83716711
mean anomaly at epoch: 34.0704°
orbit number at epoch: 2686

The dashed part of the orbit path shows where the satellite is in the earth's shadow,  

DLR